Temperature
8 6 6 6 7 8 7 7 7 8 8 8 7 7 7 7 7 6 6 6 6 7 7 7 7 7 8 8 8 7 7 7 7 7 8 8 8 8 8 8 8 8 8 8
6 6 7 7 8 7 7 7 6 7 8 8 6 6 7 6 6 6 6 6 6 6 6 6 6 7 7 7 7 7 7 7 7 7 7 7 7 7 7 7 7 7 7 7
6 7 8 7 7 7 7 6 6 7 7 7 6 6 6 6 6 6 6 6 6 6 6 6 6 6 6 6 6 6 6 6 6 6 6 6 6 6 6 6 6 6 6 6
6 6 7 7 7 7 6 7 7 6 5 4 6 5 5 5 5 5 5 5 5 5 6 5 6 6 6 5 6 6 6 6 6 6 6 6 6 6 6 6 6 6 6 6
5 6 6 6 7 7 6 7 6 6 5 4 4 4 5 4 5 5 4 5 5 5 5 5 5 6 5 5 5 5 5 5 5 5 5 5 5 5 5 5 5 5 5 5
5 6 6 6 7 7 6 5 5 4 4 4 4 4 4 3 4 5 4 4 4 5 5 5 5 5 5 5 5 5 5 5 5 4 4 4 4 4 5 5 5 5 5 5
5 5 6 6 6 6 5 4 3 3 3 3 4 4 4 4 4 4 4 4 4 4 4 4 4 5 5 4 4 4 4 4 4 4 4 4 4 4 4 4 4 4 4 4
4 4 5 5 5 5 5 4 4 4 3 3 4 4 4 4 4 4 4 4 4 4 4 3 4 4 4 4 4 4 4 4 4 4 3 3 3 3 3 3 3 3 4 4
3 4 5 5 5 5 4 3 4 3 2 3 3 3 3 3 3 3 3 3 3 3 3 3 3 3 3 3 3 3 3 3 3 3 3 3 3 3 3 3 3 3 3 3
3 3 4 4 5 5 4 4 2 2 3 3 3 3 3 3 3 2 2 2 2 2 2 2 3 3 3 3 3 3 3 3 3 3 2 2 2 2 2 2 2 2 2 2
3 2 2 3 3 3 3 3 2 2 2 3 3 3 3 2 2 2 1 2 2 2 2 2 2 2 2 2 2 2 2 2 2 2 2 2 2 2 2 2 2 2 2 2
2 1 1 2 3 3 3 3 2 2 2 1 2 3 3 2 2 1 1 1 2 2 2 2 2 2 2 2 2 2 2 2 2 2 1 1 1 1 1 1 1 1 1 1
2 1 1 2 2 2 2 2 1 1 0 0 1 2 2 1 1 1 1 1 1 1 1 1 1 1 1 1 1 1 1 1 1 1 1 1 1 1 1 1 1 1 1 1
2 -0 1 2 2 1 1 1 1 0 0 0 1 1 2 1 0 -0 0 0 0 0 0 1 1 0 0 0 0 0 0 0 0 0 0 0 0 0 0 0 0 0 0 0
0 -0 -1 -0 1 1 0 1 1 0 0 0 1 1 1 -0 -1 -1 -1 -0 -0 -0 -0 -0 -0 -0 -0 -0 -0 -0 -0 -0 -0 -0 -0 -0 -0 0 0 0 0 -0 -0 -0
-2 -1 -1 -0 1 0 0 -0 0 0 0 0 0 0 -0 -1 -1 -1 -1 -1 -2 -1 -1 -1 -1 -1 -1 -1 -1 -1 -1 -1 -1 -1 -1 -1 -0 -0 -0 -0 -0 -0 -1 -1
-2 -2 -1 -0 -1 -0 -1 -1 -1 -0 -1 -0 -0 -0 -1 -2 -2 -2 -2 -2 -2 -2 -2 -2 -2 -1 -1 -1 -1 -1 -1 -1 -1 -1 -1 -1 -1 -1 -1 -1 -1 -1 -1 -1
-3 -2 -2 -2 -1 -0 0 -1 -1 -1 -2 -2 -2 -2 -2 -2 -2 -2 -2 -2 -2 -2 -2 -2 -2 -2 -2 -2 -2 -2 -2 -2 -2 -2 -2 -2 -2 -2 -1 -1 -1 -1 -2 -2
-2 -2 -3 -2 -2 -1 -0 -1 -2 -2 -2 -3 -2 -2 -2 -2 -2 -2 -2 -2 -2 -2 -2 -2 -2 -2 -2 -2 -2 -2 -2 -2 -2 -2 -2 -2 -2 -2 -2 -2 -2 -2 -2 -2
-3 -3 -3 -3 -1 -1 0 -1 -1 -2 -2 -2 -3 -3 -3 -3 -3 -3 -2 -2 -2 -2 -2 -2 -3 -2 -2 -2 -2 -2 -3 -3 -3 -3 -3 -3 -3 -3 -2 -2 -2 -2 -2 -2
-3 -4 -4 -3 -3 -2 -2 -2 -1 -1 -1 -2 -3 -3 -3 -4 -3 -3 -3 -3 -3 -2 -2 -3 -3 -3 -3 -3 -3 -3 -3 -3 -3 -3 -3 -3 -3 -3 -3 -3 -3 -3 -3 -3
-4 -4 -4 -4 -3 -2 -3 -3 -2 -2 -2 -3 -3 -3 -3 -3 -3 -3 -3 -3 -3 -3 -3 -3 -3 -3 -3 -3 -3 -3 -3 -3 -3 -3 -3 -3 -3 -3 -3 -3 -3 -3 -3 -3
-4 -4 -4 -4 -3 -3 -3 -3 -3 -2 -3 -3 -3 -3 -3 -4 -4 -4 -3 -3 -3 -3 -3 -3 -3 -3 -3 -3 -3 -3 -3 -4 -4 -4 -4 -4 -4 -4 -4 -4 -4 -4 -4 -3
-4 -5 -5 -5 -4 -4 -3 -3 -3 -3 -3 -3 -3 -3 -4 -4 -4 -4 -4 -4 -4 -3 -3 -4 -4 -4 -4 -4 -4 -4 -4 -4 -4 -4 -4 -4 -4 -4 -4 -4 -4 -4 -4 -4
-4 -5 -5 -5 -5 -4 -3 -3 -3 -3 -3 -3 -3 -4 -4 -4 -4 -4 -4 -4 -4 -4 -4 -4 -4 -4 -4 -4 -4 -4 -4 -4 -4 -4 -5 -5 -5 -5 -4 -5 -5 -5 -5 -5
-5 -5 -5 -4 -4 -4 -3 -3 -3 -3 -3 -3 -4 -4 -4 -4 -4 -4 -4 -4 -4 -4 -4 -4 -4 -4 -4 -4 -4 -4 -4 -5 -5 -5 -5 -5 -5 -5 -5 -5 -5 -5 -5 -5
Wind_Speed
2 3 3 6 6 4 4 4 6 7 4 3 6 9 9 6 4 4 4 3 3 2 1 1 2 3 3 3 3 3 2 2 2 1 1 1 1 1 2 3 3 3 3 3
3 3 6 4 4 4 4 5 6 6 3 3 5 9 7 5 6 7 7 6 5 2 0 0 2 3 3 3 2 2 2 2 1 1 0 0 1 0 1 2 3 3 3 3
5 4 3 2 2 3 5 6 6 5 5 2 2 6 5 4 4 4 5 5 5 5 4 2 2 2 2 2 2 1 1 1 1 1 2 2 2 1 1 1 2 2 2 2
3 4 1 2 3 4 6 5 5 4 2 4 2 5 6 4 3 4 5 4 4 4 3 2 2 2 2 2 1 1 1 1 1 2 2 2 1 1 2 1 1 2 2 2
3 2 2 4 5 4 5 3 4 3 3 3 4 4 6 2 4 6 5 5 4 4 4 3 3 3 2 2 1 1 2 1 1 1 1 1 1 1 1 1 1 1 2 2
4 3 2 4 3 2 1 2 2 2 1 4 6 6 6 5 7 6 5 4 4 3 2 2 2 2 1 1 2 2 2 1 1 1 1 2 2 1 1 1 1 1 1 1
3 3 2 0 1 2 2 3 2 3 2 6 3 4 7 5 5 6 6 4 3 2 2 1 1 1 1 1 1 1 1 0 0 0 1 2 2 2 3 2 2 2 2 2
1 5 3 1 2 2 2 5 4 4 5 5 2 5 5 3 2 1 2 2 2 2 1 1 1 2 2 1 1 1 0 1 0 1 1 2 2 2 2 3 3 3 3 3
3 5 2 1 1 3 2 3 3 3 2 4 5 4 5 2 2 2 2 2 1 0 1 0 0 1 1 1 1 1 1 1 1 2 2 2 2 3 3 3 3 3 3 2
3 3 4 3 1 1 2 3 2 2 2 5 5 5 4 3 2 1 0 1 2 2 1 1 1 1 1 1 1 1 1 2 2 2 2 2 3 3 3 3 3 3 3 2
2 2 3 2 2 3 1 1 2 2 3 3 4 5 3 3 2 2 3 3 3 2 2 2 2 1 1 0 1 1 1 1 2 2 2 3 3 3 3 3 3 3 3 2
1 2 3 5 4 2 3 3 4 3 4 3 3 6 2 1 2 2 3 3 3 2 2 2 2 1 0 1 1 1 1 2 2 3 2 3 3 3 3 3 3 3 3 3
2 3 1 5 3 3 1 1 2 2 2 3 4 7 3 4 5 4 3 4 4 3 3 2 1 1 1 2 2 2 2 2 2 2 2 2 2 2 3 3 2 2 2 2
3 3 5 7 6 4 4 4 3 3 4 5 8 9 7 6 6 5 5 4 4 3 3 2 1 2 2 2 2 3 3 2 2 2 2 2 3 3 3 2 2 2 2 2
3 3 4 6 6 5 6 7 5 7 7 8 9 8 9 6 6 6 5 4 4 4 3 2 2 2 2 2 3 3 3 3 2 2 2 3 3 3 2 2 2 2 2 2
2 3 1 5 4 3 6 7 8 8 7 8 8 9 6 6 4 5 6 4 4 4 3 3 3 3 3 3 3 3 3 3 2 2 2 3 3 2 2 2 2 2 2 2
2 3 1 5 5 4 6 6 7 6 5 6 8 7 5 6 6 6 6 5 5 4 4 4 4 4 4 3 3 3 3 2 1 2 2 2 2 2 2 2 2 1 1 1
4 3 2 2 2 5 6 3 4 4 6 5 4 4 5 6 7 6 4 4 5 5 5 4 4 4 4 3 2 2 2 1 1 2 2 2 2 2 2 2 2 1 1 1
3 4 2 2 3 7 6 2 2 3 6 4 4 5 5 5 4 4 2 3 5 5 5 4 3 3 2 2 1 1 1 1 1 2 2 2 2 2 2 2 2 1 1 1
2 3 3 2 3 6 5 3 3 0 4 3 3 5 5 4 4 5 5 6 6 5 3 3 2 1 1 2 0 0 1 1 2 2 2 2 2 2 2 2 1 1 1 1
1 1 3 4 5 7 5 3 1 1 5 4 3 4 4 4 5 6 6 5 5 4 3 2 1 1 2 1 0 0 1 2 3 2 2 2 2 2 1 1 1 1 1 1
4 3 4 3 4 7 2 1 2 4 3 4 5 4 4 5 6 6 5 4 4 4 3 2 1 2 2 1 0 0 1 2 2 2 2 2 2 2 1 1 1 1 0 0
5 6 4 6 6 4 2 3 5 4 4 5 5 5 4 5 5 5 4 4 4 4 3 2 2 2 2 1 0 1 2 2 2 2 2 2 3 2 2 1 1 1 1 0
3 2 2 4 6 5 5 5 5 4 4 5 4 4 4 4 5 4 4 4 4 4 3 2 2 2 2 2 2 1 1 1 1 1 2 2 2 2 2 2 1 1 1 1
4 3 3 5 6 5 4 4 5 4 4 4 4 4 3 3 3 3 3 3 3 3 3 2 1 2 2 2 2 2 1 0 1 1 1 1 1 1 2 2 1 1 1 0
4 5 5 7 6 5 6 5 5 4 4 4 4 4 4 3 3 3 3 3 3 3 3 2 2 2 2 2 2 2 2 0 1 0 1 1 1 1 1 2 2 3 3 4
Wind_Direction
68 88 199 220 210 223 221 225 256 263 268 260 249 260 258 247 220 218 228 225 232 244 261 126 132 127 110 98 95 95 89 62 72 75 85 99 68 38 39 46 42 51 51 58
54 238 235 237 235 246 244 249 264 284 288 260 267 271 261 232 212 209 213 222 220 219 238 109 108 108 113 118 113 108 104 104 102 93 71 203 193 228 29 30 28 36 48 50
189 236 245 219 242 245 254 229 241 262 316 307 292 290 253 243 212 212 216 209 207 197 194 200 147 132 113 111 135 136 127 114 113 77 70 57 45 21 10 356 347 7 35 51
234 276 253 224 236 222 255 241 237 248 270 267 203 273 265 235 236 226 228 213 205 197 184 192 163 148 151 173 154 132 134 109 99 101 107 120 144 218 253 267 289 347 23 40
253 260 227 236 244 227 240 255 247 242 221 268 239 229 272 223 241 243 234 218 207 198 188 198 188 176 166 156 140 125 105 92 82 111 156 161 187 242 282 300 302 324 347 15
245 262 227 231 256 225 250 21 11 39 100 263 236 204 271 228 218 224 221 209 199 185 183 191 171 144 124 109 98 95 97 77 68 138 191 184 201 234 288 307 284 282 289 310
306 294 289 195 352 347 82 82 15 339 293 251 233 209 250 244 223 216 211 214 195 167 154 170 111 118 129 120 116 116 119 88 34 62 240 222 219 221 231 248 257 261 263 261
232 279 257 229 187 213 206 158 178 225 239 275 287 234 256 276 256 175 165 177 160 158 169 187 181 171 178 181 167 153 196 266 270 255 274 256 236 226 237 246 247 247 254 252
198 252 281 264 228 161 173 201 193 176 259 269 262 272 299 339 7 40 55 62 68 135 171 203 231 171 182 192 205 207 233 276 282 272 279 276 252 238 243 252 255 257 264 273
168 254 285 303 5 341 167 160 111 159 229 261 272 264 255 263 252 272 336 267 287 295 259 267 273 196 195 203 239 266 249 256 270 281 280 286 267 255 251 250 255 261 268 264
143 186 295 334 209 221 167 170 177 190 204 216 262 265 243 213 230 245 267 274 273 267 250 260 268 225 213 232 237 267 284 282 284 282 278 278 274 268 261 255 259 260 265 253
160 144 255 261 266 246 205 196 167 192 245 227 251 269 298 207 293 276 283 306 301 289 274 269 245 208 245 289 286 283 290 289 289 289 289 280 280 275 264 261 261 266 264 258
147 127 346 331 328 348 303 240 196 177 187 218 236 267 322 345 338 327 316 310 309 308 299 288 212 218 260 285 294 297 292 289 297 307 299 290 290 281 272 272 269 272 268 268
129 158 195 225 243 245 263 266 225 186 222 243 242 260 288 302 306 311 307 303 312 310 295 260 236 249 267 279 284 290 296 297 304 312 300 290 292 284 277 280 287 284 273 262
118 199 232 259 263 249 258 264 248 228 225 231 255 261 272 282 288 293 297 302 313 309 296 270 260 264 279 296 304 305 306 310 309 304 299 295 301 303 301 302 297 297 291 276
123 180 233 288 277 264 277 272 254 251 245 247 265 274 280 293 297 300 299 300 305 293 281 281 276 275 274 280 295 305 304 304 305 301 302 311 318 320 318 305 295 291 288 288
166 161 204 275 303 331 286 254 236 244 241 230 244 260 298 317 312 300 292 284 288 281 282 279 268 261 261 267 273 282 288 300 307 306 309 316 315 319 313 304 304 292 285 293
168 168 178 267 356 259 254 237 216 237 267 251 244 265 283 289 290 283 271 267 282 287 281 280 274 267 265 268 281 295 308 313 317 323 319 316 321 319 324 331 322 317 292 276
191 166 161 176 252 273 284 274 235 239 276 261 247 275 301 316 313 281 285 295 281 275 274 268 270 263 259 271 282 316 343 334 335 327 315 314 313 311 323 330 324 309 300 301
66 126 152 181 229 256 266 283 289 167 281 269 267 289 312 337 306 286 313 318 313 309 304 300 303 293 276 287 293 73 323 329 317 312 308 310 308 304 305 305 303 306 300 289
68 108 185 214 242 262 262 290 33 175 267 301 297 293 292 273 262 286 302 311 317 317 312 318 322 280 270 272 161 119 321 309 311 322 327 326 320 315 304 323 320 310 325 343
189 186 205 183 223 257 288 41 194 243 294 298 291 283 276 281 292 298 301 311 323 326 325 332 325 315 309 323 121 236 294 308 324 338 345 339 335 334 348 5 348 315 268 292
203 198 197 201 227 268 271 247 264 269 279 283 280 280 279 285 290 297 301 311 317 319 322 342 347 341 336 343 358 249 289 327 351 4 359 355 358 357 2 13 355 347 350 11
250 211 199 255 264 269 271 274 283 276 271 282 279 280 286 280 285 295 303 317 325 327 331 347 359 347 327 327 328 291 303 336 22 15 1 359 7 3 2 7 14 10 348 345
233 194 219 259 273 292 273 256 268 280 287 295 300 292 281 271 281 286 293 299 308 318 323 325 319 305 304 324 339 340 336 11 44 14 360 358 359 355 354 360 0 356 357 327
218 201 202 239 239 236 266 274 273 276 283 282 286 294 298 275 268 276 282 288 298 310 320 323 319 309 307 323 331 335 340 17 110 5 342 337 352 354 3 2 359 2 6 4
Height
1499 1504 1506 1504 1503 1502 1503 1504 1504 1501 1497 1498 1498 1496 1493 1493 1493 1493 1493 1492 1492 1492 1492 1492 1493 1493 1494 1494 1494 1495 1495 1495 1495 1495 1495 1495 1495 1495 1495 1496 1496 1496 1497 1497
1504 1504 1500 1499 1500 1501 1502 1504 1504 1500 1497 1498 1498 1495 1491 1490 1490 1489 1489 1489 1489 1490 1490 1490 1490 1491 1491 1492 1492 1493 1493 1493 1493 1493 1493 1493 1493 1493 1493 1494 1494 1494 1494 1494
1502 1501 1498 1499 1501 1501 1501 1502 1502 1501 1499 1497 1499 1496 1491 1487 1487 1487 1487 1487 1487 1487 1487 1488 1488 1489 1489 1489 1490 1490 1491 1491 1491 1491 1491 1491 1491 1491 1491 1491 1491 1491 1492 1492
1502 1499 1498 1498 1499 1499 1500 1498 1498 1499 1503 1505 1501 1502 1490 1487 1486 1485 1485 1484 1484 1486 1486 1486 1486 1486 1487 1488 1488 1489 1489 1489 1489 1489 1489 1489 1488 1488 1488 1488 1488 1489 1489 1489
1501 1498 1498 1498 1496 1496 1497 1495 1497 1498 1501 1504 1501 1503 1491 1488 1486 1483 1482 1482 1483 1483 1484 1484 1484 1485 1486 1486 1486 1487 1487 1486 1487 1487 1487 1487 1486 1486 1486 1486 1486 1486 1486 1486
1499 1497 1496 1495 1494 1495 1495 1497 1498 1501 1504 1506 1498 1501 1493 1488 1482 1480 1480 1480 1481 1482 1482 1483 1483 1483 1484 1484 1485 1485 1484 1484 1485 1485 1484 1484 1484 1484 1483 1483 1482 1482 1483 1483
1500 1497 1495 1494 1495 1495 1497 1504 1511 1510 1511 1505 1496 1495 1489 1479 1478 1478 1478 1479 1479 1480 1481 1481 1481 1481 1482 1482 1482 1483 1482 1482 1482 1482 1482 1481 1481 1481 1480 1480 1479 1479 1479 1479
1504 1502 1495 1494 1495 1497 1497 1501 1509 1508 1508 1502 1495 1492 1484 1478 1476 1476 1477 1478 1478 1478 1479 1480 1480 1480 1480 1480 1481 1480 1480 1480 1480 1479 1479 1478 1478 1477 1477 1477 1477 1476 1476 1476
1504 1500 1494 1492 1492 1494 1496 1500 1499 1506 1508 1505 1496 1491 1483 1478 1477 1477 1477 1478 1477 1477 1478 1478 1478 1478 1478 1478 1478 1478 1477 1477 1477 1476 1476 1476 1475 1474 1474 1473 1473 1473 1472 1472
1500 1503 1496 1494 1492 1493 1494 1496 1502 1505 1504 1499 1493 1491 1486 1480 1479 1478 1478 1478 1477 1476 1476 1476 1476 1476 1476 1476 1476 1476 1475 1475 1474 1474 1473 1472 1472 1471 1470 1470 1470 1469 1469 1469
1499 1504 1501 1497 1496 1495 1496 1498 1499 1502 1501 1499 1496 1489 1479 1479 1478 1477 1477 1476 1475 1475 1475 1474 1474 1474 1474 1474 1474 1473 1473 1472 1472 1471 1470 1469 1468 1467 1467 1467 1466 1466 1465 1465
1499 1503 1505 1500 1494 1492 1492 1494 1497 1501 1502 1501 1498 1490 1477 1477 1476 1477 1476 1476 1474 1473 1473 1472 1472 1472 1472 1471 1471 1470 1470 1469 1469 1468 1467 1466 1465 1464 1463 1463 1462 1462 1462 1462
1499 1504 1506 1501 1500 1496 1495 1493 1495 1499 1502 1503 1499 1489 1477 1477 1476 1476 1475 1474 1473 1472 1471 1471 1470 1470 1469 1469 1468 1467 1467 1466 1465 1464 1463 1462 1462 1461 1460 1460 1459 1459 1458 1458
1496 1502 1503 1500 1496 1495 1496 1494 1495 1497 1499 1498 1491 1484 1479 1478 1477 1476 1474 1473 1471 1470 1469 1469 1468 1468 1467 1466 1465 1465 1464 1463 1462 1461 1460 1459 1458 1458 1457 1457 1456 1456 1455 1455
1496 1501 1501 1497 1494 1494 1493 1492 1491 1492 1491 1491 1484 1482 1478 1478 1477 1475 1473 1471 1470 1468 1467 1466 1466 1465 1464 1464 1463 1462 1461 1460 1459 1458 1457 1456 1456 1455 1455 1454 1453 1453 1453 1452
1496 1500 1500 1497 1492 1492 1491 1489 1488 1487 1486 1485 1482 1480 1477 1475 1475 1473 1471 1469 1467 1465 1464 1464 1464 1463 1462 1461 1460 1459 1458 1457 1456 1455 1455 1454 1453 1453 1452 1451 1451 1450 1450 1450
1498 1499 1499 1496 1494 1492 1491 1486 1484 1483 1481 1481 1479 1478 1475 1474 1472 1470 1468 1467 1465 1463 1462 1461 1460 1460 1459 1458 1457 1456 1455 1455 1454 1453 1452 1452 1451 1450 1449 1449 1448 1448 1447 1447
1495 1497 1500 1499 1497 1495 1485 1481 1480 1480 1479 1478 1477 1475 1474 1472 1470 1468 1466 1464 1462 1461 1459 1458 1458 1457 1457 1456 1456 1455 1454 1453 1452 1451 1450 1450 1449 1448 1447 1446 1445 1445 1445 1445
1490 1494 1500 1501 1498 1490 1482 1479 1479 1479 1478 1476 1474 1472 1471 1469 1467 1464 1463 1462 1460 1458 1456 1456 1455 1455 1454 1454 1453 1453 1452 1451 1450 1449 1448 1448 1447 1446 1445 1444 1444 1444 1444 1443
1491 1493 1498 1500 1495 1488 1479 1477 1475 1478 1477 1473 1472 1470 1469 1468 1468 1464 1461 1459 1457 1455 1454 1453 1453 1452 1452 1452 1451 1450 1450 1449 1448 1447 1447 1446 1445 1444 1443 1443 1442 1442 1442 1442
1495 1496 1498 1498 1496 1485 1478 1475 1475 1480 1476 1472 1470 1469 1468 1467 1466 1463 1459 1457 1455 1453 1452 1451 1451 1450 1450 1450 1449 1448 1448 1447 1447 1446 1445 1444 1443 1442 1442 1441 1441 1441 1441 1440
1493 1495 1496 1496 1494 1485 1475 1475 1476 1474 1471 1470 1468 1467 1465 1463 1461 1459 1457 1455 1453 1452 1451 1450 1449 1448 1448 1448 1447 1447 1446 1446 1445 1444 1443 1442 1442 1441 1440 1440 1440 1439 1439 1439
1488 1487 1486 1486 1483 1475 1473 1473 1472 1471 1469 1467 1466 1464 1462 1460 1459 1457 1455 1453 1451 1450 1449 1448 1447 1447 1447 1446 1446 1445 1445 1444 1443 1443 1442 1441 1440 1440 1439 1439 1438 1438 1438 1437
1482 1481 1482 1481 1475 1472 1471 1470 1469 1468 1466 1465 1463 1461 1460 1458 1456 1455 1453 1451 1450 1449 1448 1447 1446 1445 1445 1445 1444 1444 1443 1443 1442 1441 1440 1440 1439 1439 1438 1438 1437 1437 1436 1436
1478 1478 1479 1477 1472 1470 1467 1467 1466 1465 1464 1462 1460 1459 1457 1455 1454 1453 1451 1450 1448 1447 1446 1445 1444 1444 1443 1443 1442 1442 1441 1441 1440 1440 1439 1439 1438 1438 1437 1437 1437 1436 1436 1435
1473 1474 1475 1471 1467 1467 1465 1464 1463 1462 1460 1459 1458 1456 1455 1453 1452 1451 1449 1448 1447 1446 1445 1444 1443 1442 1442 1441 1441 1440 1440 1439 1439 1438 1438 1438 1437 1437 1437 1436 1436 1435 1435 1434